Powrót do katalogu

NIMBUS 2 DEB

AktywnyLEO
NORAD 40642·DEBRIS·🇺🇸 United States

Wystrzelony May 15, 1966 z Vandenberg Space Force Base

Loading…

Następne Przeloty (najbliższe 24 godziny)

TLE

ŚwieżeSource: Space-Track

Epoka: Sep 12, 2026, 17:13 UTC

1 40642U 66040BF  26255.71746893  .00003375  00000-0  44693-2 0  9993
2 40642 100.3137 174.4821 0035235 198.9748 161.0080 13.61364324557336

Śledź NIMBUS 2 DEB w czasie rzeczywistym z AllMySat

Download on the App Store